ALAKES messages


fromtotime message
ALAKES KB7DZR-10 11/07 22:33:05z Send another TXLEVEL 10{bm
KB7DZR-10 ALAKES 11/07 22:33:02z Reply cmd txl 10{ZP}
ALAKES KB7DZR-10 11/07 22:30:49z Send another TXDELAY 8{bl
KB7DZR-10 ALAKES 11/07 22:30:46z Reply cmd txd 8{ZO}
ALAKES KB7DZR-10 11/07 22:30:35z Send another TXDELAY 18{bk
KB7DZR-10 ALAKES 11/07 22:30:31z Reply cmd txd 18{ZN}
KB7DZR-10 ALAKES 11/07 22:29:08z Reply cmd info{ZM}
ALAKES KB7DZR-10 11/07 22:28:08z Send another TXDELAY 20{bj
KB7DZR-10 ALAKES 11/07 22:28:05z Reply cmd txd 20{ZL}
ALAKES KB7DZR-10 11/07 22:25:32z Send another TEMP:42 WIND 170 AT 0 GUST 4 BARO 10300 RH 56% *{bi
KB7DZR-10 ALAKES 11/07 22:25:25z Reply cmd wxinfo{ZK}
ALAKES KB7DZR-10 11/07 22:24:58z Send another TXDELAY 5{bh
KB7DZR-10 ALAKES 11/07 22:24:51z Reply cmd txd 5{ZJ}
ALAKES KB7DZR-10 11/07 22:24:44z Send another TXLEVEL 10{bg
KB7DZR-10 ALAKES 11/07 22:24:31z Reply cmd txl 10{ZI}
ALAKES KB7DZR-10 11/07 22:24:19z Send another TXDELAY 18{bf
KB7DZR-10 ALAKES 11/07 22:24:16z Reply cmd txd 18{ZH}
ALAKES KB7DZR-10 11/07 22:23:27z Send another TEMP:61F VOLT:13.51 RX:342 FCS:753 CFG:1 PWD:0 DIGI:104{be
KB7DZR-10 ALAKES 11/07 22:23:14z Reply cmd info{ZG}
ALAKES KB7DZR-10 11/07 22:22:54z Send another TXLEVEL 8{bd
KB7DZR-10 ALAKES 11/07 22:22:51z Reply cmd txl 8{ZF}
ALAKES KB7DZR-10 11/07 22:20:28z Send another TEMP:42 WIND 210 AT 0 GUST 4 BARO 10304 RH 57% *{bc
KB7DZR-10 ALAKES 11/07 22:20:18z Reply cmd wxinfo{ZE}
ALAKES KB7DZR-10 11/07 22:19:37z Send another TEMP:61F VOLT:13.53 RX:286 FCS:614 CFG:1 PWD:0 DIGI:91{bb
KB7DZR-10 ALAKES 11/07 22:19:28z Reply cmd info{ZD}
ALAKES KB7DZR-10 11/07 22:19:18z Send another TXLEVEL 10{ba
KB7DZR-10 ALAKES 11/07 22:19:15z Reply cmd txl 10{ZC}
ALAKES KB7DZR-10 11/07 22:13:17z Send another Invalid Command{ap
KB7DZR-10 ALAKES 11/07 22:13:12z Reply cmd h{ZB}
ALAKES KB7DZR-10 11/07 22:12:56z Send another TEMP:61F VOLT:13.51 RX:189 FCS:429 CFG:1 PWD:0 DIGI:64{ao
KB7DZR-10 ALAKES 11/07 22:12:50z Reply cmd info{ZA}
ALAKES KB7DZR-10 11/07 22:12:06z Send another TXLEVEL 20{an
KB7DZR-10 ALAKES 11/07 22:12:02z Reply cmd txl 20{YZ}
ALAKES KB7DZR-10 11/07 22:11:41z Send another TEMP:42 WIND 195 AT 0 GUST 3 BARO 10292 RH 55% *{am
KB7DZR-10 ALAKES 11/07 22:11:33z Reply cmd wxinfo{YY}
ALAKES KB7DZR-10 11/07 22:10:02z Send another TEMP:61F VOLT:13.51 RX:147 FCS:328 CFG:1 PWD:0 DIGI:50{al
KB7DZR-10 ALAKES 11/07 22:09:50z Reply cmd info{YX}
ALAKES KB7DZR-10 11/07 22:09:40z Send another TXLEVEL 15{ak
KB7DZR-10 ALAKES 11/07 22:09:35z Reply cmd txl 15{YW}
ALAKES KB7DZR-10 11/07 22:09:05z Send another TXDELAY 20{aj
KB7DZR-10 ALAKES 11/07 22:09:01z Reply cmd txd 20{YV}
ALAKES KB7DZR-10 11/07 22:08:06z Send another TXLEVEL 35{ai
KB7DZR-10 ALAKES 11/07 22:07:54z Reply cmd txl 35{YU}
KB7DZR-10 ALAKES 11/07 22:07:27z Reply cmd wxinfo{YT}
ALAKES KB7DZR-10 11/07 22:07:00z Send another TEMP:42 WIND 140 AT 0 GUST 2 BARO 10242 RH 55% *{ah
ALAKES KB7DZR-10 11/07 22:06:20z Send another TXLEVEL 20{ag
KB7DZR-10 ALAKES 11/07 22:06:14z Reply cmd txl 20{YS}
ALAKES KB7DZR-10 11/07 22:05:53z Send another TXDELAY 18{af
KB7DZR-10 ALAKES 11/07 22:05:39z Reply cmd txd 18{YR}
KB7DZR-10 ALAKES 11/07 22:05:10z Reply cmd wxinfo{YQ}
ALAKES KB7DZR-10 11/07 22:04:42z Send another TEMP:42 WIND 140 AT 0 GUST 4 BARO 10300 *{ae
ALAKES KB7DZR-10 11/07 22:04:08z Send another TXLEVEL 30{ad
KB7DZR-10 ALAKES 11/07 22:04:04z Reply cmd txl 30{YP}
KB7DZR-10 ALAKES 11/07 22:03:04z Reply cmd info{YO}
ALAKES KB7DZR-10 11/07 22:02:03z Send another TEMP:62F VOLT:14.8 RX:28 FCS:66 CFG:1 PWD:0 DIGI:14{ac
KB7DZR-10 ALAKES 11/07 22:00:59z Reply cmd wxinfo{YN}
ALAKES KB7DZR-10 11/07 22:00:32z Send another TEMP:43 WIND 188 AT 1 GUST 1 BARO 10299{ab
KB7DZR-10 ALAKES 11/07 21:59:52z Reply cmd reset{YM}
KB7DZR-10 ALAKES 11/07 21:59:40z Reply cmd txd{YL}
ALAKES KB7DZR-10 11/07 21:58:40z Send another TXDELAY 20{ae
ALAKES KB7DZR-10 11/07 21:56:07z Send another TEMP:44 WIND 181 AT 0 GUST 1 BARO 10317 RH 51% *{ad
KB7DZR-10 ALAKES 11/07 21:55:50z Reply cmd wxinfo{YK}
ALAKES KB7DZR-10 11/07 21:55:32z Send another TXDELAY 20{ac
KB7DZR-10 ALAKES 11/07 21:55:28z Reply cmd txd 20{YJ}
KB7DZR-10 ALAKES 11/07 21:53:34z Reply cmd info{OC}
ALAKES KB7DZR-10 11/07 21:53:06z Send another TEMP:61F VOLT:13.53 RX:4 FCS:4 CFG:1 PWD:0 DIGI:0{ab
KB7DZR-10 ALAKES 11/07 21:52:42z Reply cmd reset{OB}
ALAKES KB7DZR-10 11/07 21:51:51z Send another TEMP:43 WIND 181 AT 0 GUST 5 *{al
KB7DZR-10 ALAKES 11/07 21:51:45z Reply cmd wxinfo{OA}
ALAKES KB7DZR-10 11/07 21:51:29z Send another TXLEVEL 60{ak
KB7DZR-10 ALAKES 11/07 21:51:15z Reply cmd txl 60{NZ}
ALAKES KB7DZR-10 11/07 21:50:48z Send another TEMP:61F VOLT:13.53 RX:18264 FCS:26286 CFG:1 PWD:0 DIGI:49519{aj
KB7DZR-10 ALAKES 11/07 21:50:41z Reply cmd info{NY}
ALAKES KB7DZR-10 11/07 21:50:26z Send another TXDELAY 18{ai
KB7DZR-10 ALAKES 11/07 21:50:18z Reply cmd txd 18{NX}
ALAKES KB7DZR-10 11/07 21:47:43z Send another TXDELAY 15{ah
KB7DZR-10 ALAKES 11/07 21:47:38z Reply cmd txd{NW}
ALAKES KB7DZR-10 11/07 21:47:25z Send another TXLEVEL 75{ag
KB7DZR-10 ALAKES 11/07 21:47:21z Reply cmd txl 75{NV}
ALAKES KB7DZR-10 11/07 21:46:26z Send another TXLEVEL 40{af
KB7DZR-10 ALAKES 11/07 21:46:13z Reply cmd txl{NU}
KB7DZR-10 ALAKES 11/07 21:45:59z Reply cmd info{NT}
ALAKES KB7DZR-10 11/07 21:44:59z Send another TEMP:61F VOLT:13.51 RX:18177 FCS:26134 CFG:1 PWD:0 DIGI:49485{ae
KB7DZR-10 ALAKES 11/07 21:44:22z Reply cmd wxinfo{NS}
ALAKES KB7DZR-10 11/07 21:37:39z Send another TEMP:41 WIND 189 AT 1 GUST 5 BARO 10293 RH 57% *{ad
KB7DZR-10 ALAKES 11/07 21:37:11z Reply cmd info{NR}
KB7DZR-10 ALAKES 11/07 21:37:01z Reply cmd wxinfo{NQ}
ALAKES KB7DZR-10 11/07 21:28:21z Send another TEMP:42 WIND 275 AT 0 GUST 3 *{ac
ALAKES KB7DZR-7 10/28 19:40:23z Send another TEMP:56F VOLT:13.51 RX:266 FCS:544 CFG:1 PWD:0 DIGI:102{ab
ALAKES EMAIL 10/28 19:21:25z Send another julian@wallowaavalanchecenter.org Low Voltage, AC Power off{aa
ALAKES EMAIL 10/28 18:39:10z Send another julain@wallowaavalanchecenter.org Low Voltage, AC Power off{aa
KB7DZR-10 ALAKES 10/06 17:11:16z Reply cmd info{WL}
ALAKES KB7DZR-10 10/06 17:09:46z Send another TEMP:76F VOLT:13.37 RX:6512 FCS:30694 CFG:1 PWD:0 DIGI:24164{ab